Location: *
(53.9002°N, 27.5624°E)
Time: 13:40:04
(UTC+00:00)

Cosmos 1656 Rocket - Pass Details

Date: 12 November 2019
Orbit: 797 x 845 km, 71.1° (Epoch: 15 December)

Event Time Altitude Azimuth Distance (km) Brightness Sun altitude
Rises 15:25:19 0° 214° (SW) 3,339 7.7 -10.2°
Reaches altitude 10° 15:27:45 10° 216° (SW) 2,403 6.9 -10.5°
Maximum altitude 15:33:15 80° 303° (WNW) 828 3.7 -11.3°
Drops below altitude 10° 15:38:44 10° 31° (NNE) 2,391 5.6 -12.1°
Enters shadow 15:39:37 - 32° (NNE) 2,731 5.9 -12.2°
